,,,PA_Meas_PMT16A,,PR_Meas_QMR101_102,,RH_Meas_QMH101,,SR_Meas_QMS101,,TA_Meas_QMH101,,GenWind,,GenWind,
date,time,status,PA,status,PR,status,RH,status,SR,status,TA,status,DirAvg,status,SpdAvg,
2012-04-13, 00:00:05,VALID,1004.83,VALID,0,VALID,92.5002,VALID,0,VALID,24.3052,VALID,351,VALID,0,
2012-04-13, 00:01:05,VALID,1004.81,VALID,0,VALID,92.5917,VALID,0,VALID,24.3052,VALID,351,VALID,0,
2012-04-13, 00:02:05,VALID,1004.83,VALID,0,VALID,92.6604,VALID,0,VALID,24.3265,VALID,351,VALID,0,
2012-04-13, 00:03:05,VALID,1004.82,VALID,0,VALID,92.7367,VALID,0,VALID,24.307,VALID,351,VALID,0,
2012-04-13, 00:04:05,VALID,1004.8,VALID,0,VALID,92.7672,VALID,0,VALID,24.3265,VALID,351,VALID,0,
2012-04-13, 00:05:05,VALID,1004.81,VALID,0,VALID,92.874,VALID,0,VALID,24.3052,VALID,351,VALID,0,
2012-04-13, 00:06:05,VALID,1004.81,VALID,0,VALID,92.9121,VALID,0,VALID,24.3052,VALID,351,VALID,0,
2012-04-13, 00:07:05,VALID,1004.85,VALID,0,VALID,92.9732,VALID,0,VALID,24.3246,VALID,351,VALID,0,
2012-04-13, 00:08:05,VALID,1004.8,VALID,0,VALID,93.0037,VALID,0,VALID,24.3246,VALID,351,VALID,0,
2012-04-13, 00:09:05,VALID,1004.83,VALID,0,VALID,93.0876,VALID,0.0815089,VALID,24.3441,VALID,351,VALID,0,
2012-04-13, 00:10:05,VALID,1004.86,VALID,0,VALID,93.08,VALID,0,VALID,24.3246,VALID,351,VALID,0,
2012-04-13, 00:11:05,VALID,1004.85,VALID,0,VALID,93.1334,VALID,0,VALID,24.3441,VALID,351,VALID,0,
2012-04-13, 00:12:05,VALID,1004.85,VALID,0,VALID,93.2097,VALID,0,VALID,24.3636,VALID,351,VALID,0,
2012-04-13, 00:13:05,VALID,1004.84,VALID,0,VALID,93.2249,VALID,0,VALID,24.4025,VALID,351,VALID,0,
2012-04-13, 00:14:05,VALID,1004.84,VALID,0,VALID,93.1563,VALID,0,VALID,24.422,VALID,351,VALID,0,
2012-04-13, 00:15:05,VALID,1004.8,VALID,0,VALID,93.1639,VALID,0,VALID,24.4414,VALID,351,VALID,0,
2012-04-13, 00:16:05,VALID,1004.81,VALID,0,VALID,92.9198,VALID,0,VALID,24.4609,VALID,351,VALID,0,
2012-04-13, 00:17:05,VALID,1004.79,VALID,0,VALID,92.7748,VALID,0,VALID,24.4609,VALID,351,VALID,0,
2012-04-13, 00:18:05,VALID,1004.8,VALID,0,VALID,92.8358,VALID,0,VALID,24.4822,VALID,351,VALID,0,
2012-04-13, 00:19:05,VALID,1004.79,VALID,0,VALID,93.0113,VALID,0,VALID,24.4998,VALID,351,VALID,0.391797,
2012-04-13, 00:20:05,VALID,1004.79,VALID,0,VALID,93.0037,VALID,0,VALID,24.5388,VALID,351,VALID,0.31875,
2012-04-13, 00:21:05,VALID,1004.79,VALID,0,VALID,92.8511,VALID,0,VALID,24.5388,VALID,351,VALID,0.367188,
2012-04-13, 00:22:05,VALID,1004.81,VALID,0,VALID,92.6299,VALID,0,VALID,24.5193,VALID,351,VALID,0.610937,
2012-04-13, 00:23:05,VALID,1004.79,VALID,0,VALID,92.462,VALID,0,VALID,24.4998,VALID,351,VALID,0.361719,
2012-04-13, 00:24:05,VALID,1004.78,VALID,0,VALID,92.546,VALID,0.0815089,VALID,24.4998,VALID,351,VALID,0.234766,
2012-04-13, 00:25:05,VALID,1004.78,VALID,0,VALID,92.6451,VALID,0.0815089,VALID,24.4998,VALID,351,VALID,0.223438,
2012-04-13, 00:26:05,VALID,1004.77,VALID,0,VALID,92.7443,VALID,0,VALID,24.4804,VALID,351,VALID,0,
2012-04-13, 00:27:05,VALID,1004.73,VALID,0,VALID,92.8969,VALID,0.0815089,VALID,24.4998,VALID,351,VALID,0,
2012-04-13, 00:28:05,VALID,1004.77,VALID,0,VALID,92.935,VALID,0,VALID,24.5174,VALID,351,VALID,0,
2012-04-13, 00:29:05,VALID,1004.76,VALID,0,VALID,92.874,VALID,0.0815089,VALID,24.498,VALID,351,VALID,0,
2012-04-13, 00:30:05,VALID,1004.75,VALID,0,VALID,92.729,VALID,0.0815089,VALID,24.5193,VALID,351,VALID,0,
2012-04-13, 00:31:05,VALID,1004.75,VALID,0,VALID,92.7062,VALID,0.0815089,VALID,24.4804,VALID,351,VALID,0,
2012-04-13, 00:32:05,VALID,1004.76,VALID,0,VALID,92.729,VALID,0.0815089,VALID,24.4396,VALID,351,VALID,0,
2012-04-13, 00:33:05,VALID,1004.74,VALID,0,VALID,92.6909,VALID,0.0815089,VALID,24.4609,VALID,351,VALID,0,
2012-04-13, 00:34:05,VALID,1004.75,VALID,0,VALID,92.8053,VALID,0,VALID,24.4006,VALID,351,VALID,0,
2012-04-13, 00:35:05,VALID,1004.73,VALID,0,VALID,92.8435,VALID,0.0815089,VALID,24.4006,VALID,351,VALID,0,
2012-04-13, 00:36:05,VALID,1004.75,VALID,0,VALID,92.8664,VALID,0,VALID,24.4006,VALID,351,VALID,0,
2012-04-13, 00:37:05,VALID,1004.74,VALID,0,VALID,92.9274,VALID,0,VALID,24.3812,VALID,351,VALID,0,
2012-04-13, 00:38:05,VALID,1004.73,VALID,0,VALID,93.0418,VALID,0.0815089,VALID,24.422,VALID,351,VALID,0,
2012-04-13, 00:39:05,VALID,1004.76,VALID,0,VALID,93.0952,VALID,0,VALID,24.422,VALID,351,VALID,0,
2012-04-13, 00:40:05,VALID,1004.77,VALID,0,VALID,93.1868,VALID,0,VALID,24.422,VALID,351,VALID,0,
2012-04-13, 00:41:05,VALID,1004.79,VALID,0,VALID,93.1868,VALID,0,VALID,24.4414,VALID,351,VALID,0,
2012-04-13, 00:42:05,VALID,1004.8,VALID,0,VALID,93.1257,VALID,0,VALID,24.422,VALID,351,VALID,0,
2012-04-13, 00:43:05,VALID,1004.8,VALID,0,VALID,93.1257,VALID,0.0815089,VALID,24.4025,VALID,351,VALID,0,
2012-04-13, 00:44:05,VALID,1004.8,VALID,0,VALID,93.141,VALID,0.0815089,VALID,24.4025,VALID,351,VALID,0,
2012-04-13, 00:45:05,VALID,1004.83,VALID,0,VALID,93.1486,VALID,0,VALID,24.3812,VALID,351,VALID,0,
2012-04-13, 00:46:05,VALID,1004.83,VALID,0,VALID,93.2631,VALID,0.0815089,VALID,24.3812,VALID,351,VALID,0,
2012-04-13, 00:47:05,VALID,1004.82,VALID,0,VALID,93.2631,VALID,0.0815089,VALID,24.3812,VALID,351,VALID,0,
2012-04-13, 00:48:05,VALID,1004.87,VALID,0,VALID,93.2936,VALID,0,VALID,24.4025,VALID,351,VALID,0,
2012-04-13, 00:49:05,VALID,1004.85,VALID,0,VALID,93.3546,VALID,0,VALID,24.422,VALID,351,VALID,0,
2012-04-13, 00:50:05,VALID,1004.84,VALID,0,VALID,93.3012,VALID,0,VALID,24.422,VALID,351,VALID,0,
2012-04-13, 00:51:05,VALID,1004.85,VALID,0,VALID,93.2097,VALID,0,VALID,24.422,VALID,351,VALID,0,
2012-04-13, 00:52:05,VALID,1004.82,VALID,0,VALID,93.202,VALID,0,VALID,24.4025,VALID,351,VALID,0,
2012-04-13, 00:53:05,VALID,1004.87,VALID,0,VALID,93.1715,VALID,0.0815089,VALID,24.3617,VALID,351,VALID,0,
2012-04-13, 00:54:05,VALID,1004.84,VALID,0,VALID,93.1944,VALID,0,VALID,24.4025,VALID,351,VALID,0,
2012-04-13, 00:55:05,VALID,1004.82,VALID,0,VALID,93.1944,VALID,0,VALID,24.383,VALID,351,VALID,0,
2012-04-13, 00:56:05,VALID,1004.82,VALID,0,VALID,93.2325,VALID,0,VALID,24.3636,VALID,351,VALID,0,
2012-04-13, 00:57:05,VALID,1004.84,VALID,0,VALID,93.3241,VALID,0,VALID,24.3636,VALID,351,VALID,0,
2012-04-13, 00:58:05,VALID,1004.83,VALID,0,VALID,93.4233,VALID,0,VALID,24.3812,VALID,351,VALID,0.591406,
2012-04-13, 00:59:05,VALID,1004.87,VALID,0,VALID,93.4996,VALID,0,VALID,24.422,VALID,352,VALID,0.745703,
2012-04-13, 01:00:05,VALID,1004.85,VALID,0,VALID,93.5148,VALID,0,VALID,24.4414,VALID,355,VALID,0.778906,
2012-04-13, 01:01:05,VALID,1004.89,VALID,0,VALID,93.6979,VALID,0.0815089,VALID,24.4998,VALID,339,VALID,0.8,
2012-04-13, 01:02:05,VALID,1004.92,VALID,0,VALID,93.6445,VALID,0,VALID,24.5388,VALID,353,VALID,1.51914,
2012-04-13, 01:03:05,VALID,1004.91,VALID,0,VALID,93.469,VALID,0,VALID,24.5388,VALID,343,VALID,1.00039,
2012-04-13, 01:04:05,VALID,1004.9,VALID,0,VALID,93.2936,VALID,0,VALID,24.5388,VALID,349,VALID,0.721094,
2012-04-13, 01:05:05,VALID,1004.92,VALID,0,VALID,93.2249,VALID,0,VALID,24.5388,VALID,345,VALID,0.500391,
2012-04-13, 01:06:05,VALID,1004.93,VALID,0,VALID,93.1868,VALID,0,VALID,24.5388,VALID,346,VALID,0.494531,
2012-04-13, 01:07:05,VALID,1004.91,VALID,0,VALID,93.0723,VALID,0,VALID,24.5388,VALID,330,VALID,0.547656,
2012-04-13, 01:08:05,VALID,1004.9,VALID,0,VALID,93.0342,VALID,0,VALID,24.5388,VALID,339,VALID,0.314453,
2012-04-13, 01:09:05,VALID,1004.89,VALID,0,VALID,92.9884,VALID,0,VALID,24.5582,VALID,337,VALID,0.207813,
2012-04-13, 01:10:05,VALID,1004.86,VALID,0,VALID,92.9274,VALID,0,VALID,24.5582,VALID,337,VALID,0.19375,
2012-04-13, 01:11:05,VALID,1004.87,VALID,0,VALID,92.9121,VALID,0,VALID,24.5369,VALID,337,VALID,0,
2012-04-13, 01:12:05,VALID,1004.85,VALID,0,VALID,92.8435,VALID,0,VALID,24.5369,VALID,337,VALID,0.326172,
2012-04-13, 01:13:04,VALID,1004.86,VALID,0,VALID,92.7367,VALID,0,VALID,24.5388,VALID,337,VALID,0.291016,
2012-04-13, 01:14:04,VALID,1004.85,VALID,0,VALID,92.7596,VALID,0,VALID,24.5388,VALID,337,VALID,0.325391,
2012-04-13, 01:15:04,VALID,1004.83,VALID,0,VALID,92.813,VALID,0,VALID,24.5388,VALID,337,VALID,0.330469,
2012-04-13, 01:16:04,VALID,1004.83,VALID,0,VALID,92.7672,VALID,0,VALID,24.5388,VALID,337,VALID,0.336719,
2012-04-13, 01:17:04,VALID,1004.8,VALID,0,VALID,92.7519,VALID,0,VALID,24.5193,VALID,337,VALID,0.317187,
2012-04-13, 01:18:04,VALID,1004.81,VALID,0,VALID,92.729,VALID,0,VALID,24.5193,VALID,337,VALID,0.330078,
2012-04-13, 01:19:04,VALID,1004.77,VALID,0,VALID,92.7672,VALID,0.0815089,VALID,24.4998,VALID,337,VALID,0.171484,
2012-04-13, 01:20:04,VALID,1004.77,VALID,0,VALID,92.7824,VALID,0,VALID,24.4785,VALID,337,VALID,0.0105469,
2012-04-13, 01:21:04,VALID,1004.78,VALID,0,VALID,92.9121,VALID,0,VALID,24.4998,VALID,337,VALID,0.0632813,
2012-04-13, 01:22:04,VALID,1004.78,VALID,0,VALID,92.9732,VALID,0,VALID,24.5406,VALID,337,VALID,0,
2012-04-13, 01:23:04,VALID,1004.76,VALID,0,VALID,93.0037,VALID,0,VALID,24.5193,VALID,337,VALID,0,
2012-04-13, 01:24:04,VALID,1004.81,VALID,0,VALID,92.935,VALID,0,VALID,24.5174,VALID,337,VALID,0,
2012-04-13, 01:25:04,VALID,1004.77,VALID,0,VALID,92.8892,VALID,0.0815089,VALID,24.5388,VALID,337,VALID,0,
2012-04-13, 01:26:04,VALID,1004.79,VALID,0,VALID,92.935,VALID,0,VALID,24.5193,VALID,337,VALID,0,
2012-04-13, 01:27:04,VALID,1004.79,VALID,0,VALID,92.9045,VALID,0,VALID,24.5193,VALID,337,VALID,0,
2012-04-13, 01:28:04,VALID,1004.77,VALID,0,VALID,92.9198,VALID,0,VALID,24.498,VALID,337,VALID,0,
2012-04-13, 01:29:04,VALID,1004.76,VALID,0,VALID,93.0037,VALID,0,VALID,24.5406,VALID,337,VALID,0.434375,
2012-04-13, 01:30:04,VALID,1004.74,VALID,0,VALID,92.9884,VALID,0,VALID,24.4998,VALID,337,VALID,0.517578,
2012-04-13, 01:31:04,VALID,1004.73,VALID,0,VALID,92.8892,VALID,0,VALID,24.459,VALID,337,VALID,0.644922,
2012-04-13, 01:32:04,VALID,1004.7,VALID,0,VALID,92.874,VALID,0,VALID,24.4804,VALID,337,VALID,0.405078,
2012-04-13, 01:33:04,VALID,1004.69,VALID,0,VALID,92.9198,VALID,0,VALID,24.4609,VALID,337,VALID,0.412109,
2012-04-13, 01:34:04,VALID,1004.68,VALID,0,VALID,93.0647,VALID,0,VALID,24.4609,VALID,337,VALID,0.285547,
2012-04-13, 01:35:04,VALID,1004.67,VALID,0,VALID,93.0876,VALID,0,VALID,24.4609,VALID,337,VALID,0,
2012-04-13, 01:36:04,VALID,1004.63,VALID,0,VALID,93.0952,VALID,0,VALID,24.4609,VALID,337,VALID,0,
2012-04-13, 01:37:04,VALID,1004.63,VALID,0,VALID,93.141,VALID,0,VALID,24.4822,VALID,337,VALID,0,
2012-04-13, 01:38:04,VALID,1004.62,VALID,0,VALID,93.1029,VALID,0,VALID,24.4609,VALID,337,VALID,0,
2012-04-13, 01:39:04,VALID,1004.62,VALID,0,VALID,93.1334,VALID,0,VALID,24.4414,VALID,337,VALID,0,
2012-04-13, 01:40:04,VALID,1004.65,VALID,0,VALID,93.1105,VALID,0,VALID,24.4414,VALID,337,VALID,0,
2012-04-13, 01:41:04,VALID,1004.65,VALID,0,VALID,93.1029,VALID,0,VALID,24.4433,VALID,337,VALID,0,
2012-04-13, 01:42:04,VALID,1004.66,VALID,0,VALID,93.2402,VALID,0,VALID,24.4628,VALID,337,VALID,0,
2012-04-13, 01:43:04,VALID,1004.69,VALID,0,VALID,93.3394,VALID,0,VALID,24.4609,VALID,337,VALID,0,
2012-04-13, 01:44:04,VALID,1004.72,VALID,0,VALID,93.3317,VALID,0,VALID,24.4609,VALID,337,VALID,0,
2012-04-13, 01:45:04,VALID,1004.72,VALID,0,VALID,93.3088,VALID,0,VALID,24.459,VALID,337,VALID,0,
2012-04-13, 01:46:04,VALID,1004.69,VALID,0,VALID,93.347,VALID,0,VALID,24.4396,VALID,337,VALID,0.2875,
2012-04-13, 01:47:04,VALID,1004.65,VALID,0,VALID,93.3394,VALID,0,VALID,24.4414,VALID,337,VALID,0.25625,
2012-04-13, 01:48:04,VALID,1004.63,VALID,0,VALID,93.3317,VALID,0,VALID,24.4433,VALID,337,VALID,0.423828,
2012-04-13, 01:49:04,VALID,1004.63,VALID,0,VALID,93.408,VALID,0,VALID,24.4628,VALID,337,VALID,0.300391,
2012-04-13, 01:50:04,VALID,1004.6,VALID,0,VALID,93.4538,VALID,0,VALID,24.4414,VALID,337,VALID,0,
2012-04-13, 01:51:04,VALID,1004.6,VALID,0,VALID,93.4843,VALID,0,VALID,24.422,VALID,337,VALID,0.385547,
2012-04-13, 01:52:04,VALID,1004.6,VALID,0,VALID,93.4767,VALID,0,VALID,24.4414,VALID,337,VALID,0.355469,
2012-04-13, 01:53:04,VALID,1004.61,VALID,0,VALID,93.3928,VALID,0,VALID,24.422,VALID,337,VALID,0.629297,
2012-04-13, 01:54:04,VALID,1004.61,VALID,0,VALID,93.408,VALID,0,VALID,24.4238,VALID,337,VALID,0.55,
2012-04-13, 01:55:04,VALID,1004.63,VALID,0,VALID,93.4996,VALID,0,VALID,24.4006,VALID,337,VALID,0.467969,
2012-04-13, 01:56:04,VALID,1004.63,VALID,0,VALID,93.347,VALID,0,VALID,24.383,VALID,337,VALID,0.505078,
2012-04-13, 01:57:04,VALID,1004.62,VALID,0,VALID,93.3928,VALID,0,VALID,24.3636,VALID,337,VALID,0.14375,
2012-04-13, 01:58:04,VALID,1004.59,VALID,0,VALID,93.4843,VALID,0,VALID,24.3617,VALID,337,VALID,0.0667969,
2012-04-13, 01:59:04,VALID,1004.55,VALID,0,VALID,93.5758,VALID,0,VALID,24.383,VALID,337,VALID,0,
2012-04-13, 02:00:04,VALID,1004.55,VALID,0,VALID,93.5911,VALID,0,VALID,24.383,VALID,337,VALID,0,
2012-04-13, 02:01:04,VALID,1004.56,VALID,0,VALID,93.6369,VALID,0,VALID,24.4025,VALID,337,VALID,0,
2012-04-13, 02:02:04,VALID,1004.56,VALID,0,VALID,93.6292,VALID,0,VALID,24.4433,VALID,337,VALID,0,
2012-04-13, 02:03:04,VALID,1004.55,VALID,0,VALID,93.614,VALID,0,VALID,24.4006,VALID,337,VALID,0,
2012-04-13, 02:04:04,VALID,1004.58,VALID,0,VALID,93.6292,VALID,0,VALID,24.422,VALID,337,VALID,0,
2012-04-13, 02:05:04,VALID,1004.58,VALID,0,VALID,93.5758,VALID,0,VALID,24.422,VALID,337,VALID,0,
2012-04-13, 02:06:04,VALID,1004.59,VALID,0,VALID,93.5835,VALID,0.0815089,VALID,24.422,VALID,337,VALID,0,
2012-04-13, 02:07:04,VALID,1004.56,VALID,0,VALID,93.5453,VALID,0,VALID,24.422,VALID,337,VALID,0,
2012-04-13, 02:08:04,VALID,1004.58,VALID,0,VALID,93.553,VALID,0,VALID,24.4006,VALID,337,VALID,0,
2012-04-13, 02:09:04,VALID,1004.59,VALID,0,VALID,93.5606,VALID,0,VALID,24.4006,VALID,337,VALID,0,
2012-04-13, 02:10:04,VALID,1004.56,VALID,0,VALID,93.5224,VALID,0,VALID,24.4433,VALID,337,VALID,0.2875,
2012-04-13, 02:11:04,VALID,1004.56,VALID,0,VALID,93.3546,VALID,0,VALID,24.422,VALID,7,VALID,0.695313,
2012-04-13, 02:12:04,VALID,1004.56,VALID,0,VALID,93.1868,VALID,0,VALID,24.4609,VALID,4,VALID,0.332031,
2012-04-13, 02:13:04,VALID,1004.55,VALID,0,VALID,93.0189,VALID,0,VALID,24.498,VALID,4,VALID,0.173047,
2012-04-13, 02:14:04,VALID,1004.58,VALID,0,VALID,92.813,VALID,0,VALID,24.5388,VALID,4,VALID,0,
2012-04-13, 02:15:04,VALID,1004.58,VALID,0,VALID,92.6909,VALID,0,VALID,24.5777,VALID,4,VALID,0,
2012-04-13, 02:16:04,VALID,1004.58,VALID,0,VALID,92.5231,VALID,0,VALID,24.5972,VALID,4,VALID,0,
2012-04-13, 02:17:04,VALID,1004.58,VALID,0,VALID,92.2789,VALID,0,VALID,24.5777,VALID,4,VALID,0,
2012-04-13, 02:18:04,VALID,1004.58,VALID,0,VALID,92.1187,VALID,0,VALID,24.5758,VALID,4,VALID,0,
2012-04-13, 02:19:04,VALID,1004.55,VALID,0,VALID,91.928,VALID,0,VALID,24.638,VALID,4,VALID,0,
2012-04-13, 02:20:04,VALID,1004.56,VALID,0,VALID,91.6152,VALID,0.0815089,VALID,24.6361,VALID,4,VALID,0,
2012-04-13, 02:21:04,VALID,1004.55,VALID,0,VALID,91.3253,VALID,0,VALID,24.6556,VALID,4,VALID,0,
2012-04-13, 02:22:04,VALID,1004.51,VALID,0,VALID,91.0202,VALID,0,VALID,24.6556,VALID,4,VALID,0,
2012-04-13, 02:23:04,VALID,1004.51,VALID,0,VALID,90.7989,VALID,0,VALID,24.714,VALID,2,VALID,0.346875,
2012-04-13, 02:24:04,VALID,1004.45,VALID,0,VALID,90.5624,VALID,0,VALID,24.7529,VALID,2,VALID,0,
2012-04-13, 02:25:04,VALID,1004.46,VALID,0,VALID,90.2573,VALID,0,VALID,24.7919,VALID,2,VALID,0.0597656,
2012-04-13, 02:26:04,VALID,1004.42,VALID,0,VALID,90.1276,VALID,0.0815089,VALID,24.8308,VALID,2,VALID,0.218359,
2012-04-13, 02:27:04,VALID,1004.37,VALID,0,VALID,89.8606,VALID,0,VALID,24.9106,VALID,2,VALID,0.388672,
2012-04-13, 02:28:04,VALID,1004.38,VALID,0,VALID,89.7461,VALID,0,VALID,24.9106,VALID,360,VALID,0.434375,
2012-04-13, 02:29:04,VALID,1004.36,VALID,0,VALID,89.3494,VALID,0,VALID,24.9495,VALID,358,VALID,0.443359,
2012-04-13, 02:30:04,VALID,1004.36,VALID,0,VALID,88.9985,VALID,0,VALID,24.9671,VALID,360,VALID,0.237109,
2012-04-13, 02:31:04,VALID,1004.38,VALID,0,VALID,88.7773,VALID,0,VALID,25.0236,VALID,358,VALID,0.369141,
2012-04-13, 02:32:04,VALID,1004.33,VALID,0,VALID,88.1136,VALID,0,VALID,25.0839,VALID,326,VALID,0.480859,
2012-04-13, 02:33:04,VALID,1004.34,VALID,0,VALID,87.8771,VALID,0,VALID,25.1618,VALID,326,VALID,0.377734,
2012-04-13, 02:34:04,VALID,1004.34,VALID,0,VALID,87.5567,VALID,0,VALID,25.2221,VALID,343,VALID,0.496484,
2012-04-13, 02:35:04,VALID,1004.33,VALID,0,VALID,87.1828,VALID,0,VALID,25.2397,VALID,347,VALID,0.944922,
2012-04-13, 02:36:04,VALID,1004.32,VALID,0,VALID,86.954,VALID,0,VALID,25.3195,VALID,347,VALID,0.888672,
2012-04-13, 02:37:04,VALID,1004.32,VALID,0,VALID,86.9921,VALID,0,VALID,25.337,VALID,357,VALID,0.587109,
2012-04-13, 02:38:04,VALID,1004.32,VALID,0,VALID,86.8701,VALID,0,VALID,25.337,VALID,349,VALID,0.202734,
2012-04-13, 02:39:04,VALID,1004.31,VALID,0,VALID,86.6412,VALID,0,VALID,25.337,VALID,317,VALID,1.04375,
2012-04-13, 02:40:04,VALID,1004.34,VALID,0,VALID,86.6565,VALID,0,VALID,25.3779,VALID,359,VALID,0.836328,
2012-04-13, 02:41:04,VALID,1004.35,VALID,0,VALID,86.3284,VALID,0,VALID,25.376,VALID,350,VALID,0.794922,
2012-04-13, 02:42:04,VALID,1004.32,VALID,0,VALID,86.3818,VALID,0,VALID,25.3974,VALID,340,VALID,0.264844,
2012-04-13, 02:43:04,VALID,1004.31,VALID,0,VALID,86.5191,VALID,0,VALID,25.4363,VALID,231,VALID,0.547656,
2012-04-13, 02:44:04,VALID,1004.3,VALID,0,VALID,86.4734,VALID,0,VALID,25.4149,VALID,233,VALID,0.142578,
2012-04-13, 02:45:04,VALID,1004.29,VALID,0,VALID,86.481,VALID,0.0815089,VALID,25.3955,VALID,1,VALID,0.853125,
2012-04-13, 02:46:04,VALID,1004.25,VALID,0,VALID,86.481,VALID,0,VALID,25.3955,VALID,307,VALID,0.452734,
2012-04-13, 02:47:04,VALID,1004.21,VALID,0,VALID,86.748,VALID,0,VALID,25.3955,VALID,297,VALID,0.196094,
2012-04-13, 02:48:04,VALID,1004.19,VALID,0,VALID,86.5954,VALID,0,VALID,25.4169,VALID,297,VALID,0.267578,
2012-04-13, 02:49:04,VALID,1004.17,VALID,0,VALID,86.7251,VALID,0,VALID,25.4149,VALID,301,VALID,0.276563,
2012-04-13, 02:50:04,VALID,1004.18,VALID,0,VALID,86.7785,VALID,0,VALID,25.4169,VALID,314,VALID,0.484375,
2012-04-13, 02:51:04,VALID,1004.18,VALID,0,VALID,86.8243,VALID,0,VALID,25.4169,VALID,300,VALID,0.391797,
2012-04-13, 02:52:04,VALID,1004.15,VALID,0,VALID,86.8548,VALID,0,VALID,25.3955,VALID,300,VALID,0,
2012-04-13, 02:53:04,VALID,1004.15,VALID,0,VALID,86.8472,VALID,0,VALID,25.4169,VALID,300,VALID,0,
2012-04-13, 02:54:04,VALID,1004.19,VALID,0,VALID,86.954,VALID,0,VALID,25.4169,VALID,300,VALID,0.43125,
2012-04-13, 02:55:04,VALID,1004.14,VALID,0,VALID,86.9158,VALID,0,VALID,25.3974,VALID,295,VALID,0.383594,
2012-04-13, 02:56:04,VALID,1004.15,VALID,0,VALID,86.954,VALID,0,VALID,25.376,VALID,295,VALID,0.375391,
2012-04-13, 02:57:04,VALID,1004.18,VALID,0,VALID,86.9845,VALID,0,VALID,25.376,VALID,309,VALID,0.471875,
2012-04-13, 02:58:04,VALID,1004.17,VALID,0,VALID,87.0379,VALID,0,VALID,25.376,VALID,309,VALID,0.0238281,
2012-04-13, 02:59:04,VALID,1004.2,VALID,0,VALID,87.1905,VALID,0,VALID,25.3779,VALID,309,VALID,0.00078125,
2012-04-13, 03:00:04,VALID,1004.2,VALID,0,VALID,87.0989,VALID,0,VALID,25.376,VALID,306,VALID,0.602734,
2012-04-13, 03:01:04,VALID,1004.2,VALID,0,VALID,87.2057,VALID,0,VALID,25.3974,VALID,306,VALID,0.0730469,
2012-04-13, 03:02:04,VALID,1004.24,VALID,0,VALID,87.0532,VALID,0,VALID,25.3565,VALID,304,VALID,0.319922,
2012-04-13, 03:03:04,VALID,1004.27,VALID,0,VALID,87.0455,VALID,0,VALID,25.3565,VALID,285,VALID,0.487891,
2012-04-13, 03:04:04,VALID,1004.29,VALID,0,VALID,86.8243,VALID,0,VALID,25.3955,VALID,346,VALID,0.859375,
2012-04-13, 03:05:04,VALID,1004.28,VALID,0,VALID,86.8014,VALID,0,VALID,25.4363,VALID,356,VALID,0.644141,
2012-04-13, 03:06:04,VALID,1004.32,VALID,0,VALID,86.7327,VALID,0,VALID,25.4363,VALID,353,VALID,0.221484,
2012-04-13, 03:07:04,VALID,1004.3,VALID,0,VALID,86.7404,VALID,0,VALID,25.4558,VALID,355,VALID,0.6125,
2012-04-13, 03:08:04,VALID,1004.28,VALID,0,VALID,86.7709,VALID,0,VALID,25.4149,VALID,355,VALID,0.456641,
2012-04-13, 03:09:04,VALID,1004.29,VALID,0,VALID,86.7556,VALID,0,VALID,25.4363,VALID,346,VALID,0.361328,
2012-04-13, 03:10:04,VALID,1004.3,VALID,0,VALID,86.6717,VALID,0.0815089,VALID,25.4344,VALID,345,VALID,0.863672,
2012-04-13, 03:11:04,VALID,1004.31,VALID,0,VALID,86.6717,VALID,0,VALID,25.4344,VALID,341,VALID,0.366797,
2012-04-13, 03:12:04,VALID,1004.3,VALID,0,VALID,86.7251,VALID,0,VALID,25.4363,VALID,340,VALID,0.25,
2012-04-13, 03:13:04,VALID,1004.3,VALID,0,VALID,86.7022,VALID,0,VALID,25.3955,VALID,340,VALID,0.147266,
2012-04-13, 03:14:04,VALID,1004.3,VALID,0,VALID,86.8167,VALID,0,VALID,25.3955,VALID,340,VALID,0.230469,
2012-04-13, 03:15:04,VALID,1004.29,VALID,0,VALID,86.8167,VALID,0,VALID,25.3974,VALID,344,VALID,0.520703,
2012-04-13, 03:16:04,VALID,1004.28,VALID,0,VALID,86.8929,VALID,0,VALID,25.3565,VALID,344,VALID,0.452344,
2012-04-13, 03:17:04,VALID,1004.31,VALID,0,VALID,87.0226,VALID,0,VALID,25.337,VALID,344,VALID,0.025,
2012-04-13, 03:18:04,VALID,1004.27,VALID,0,VALID,87.1447,VALID,0,VALID,25.3584,VALID,337,VALID,0.811328,
2012-04-13, 03:19:04,VALID,1004.28,VALID,0,VALID,87.2134,VALID,0,VALID,25.3176,VALID,354,VALID,0.441797,
2012-04-13, 03:20:04,VALID,1004.28,VALID,0,VALID,87.4041,VALID,0,VALID,25.3176,VALID,355,VALID,0.235547,
2012-04-13, 03:21:04,VALID,1004.24,VALID,0,VALID,87.4956,VALID,0,VALID,25.3195,VALID,350,VALID,0.840625,
2012-04-13, 03:22:04,VALID,1004.22,VALID,0,VALID,87.5719,VALID,0,VALID,25.2981,VALID,348,VALID,0.910547,
2012-04-13, 03:23:04,VALID,1004.2,VALID,0,VALID,87.6482,VALID,0,VALID,25.2786,VALID,348,VALID,0.790625,
2012-04-13, 03:24:04,VALID,1004.2,VALID,0,VALID,87.7779,VALID,0,VALID,25.3,VALID,351,VALID,0.445313,
2012-04-13, 03:25:04,VALID,1004.18,VALID,0,VALID,87.7779,VALID,0,VALID,25.2981,VALID,348,VALID,1.13672,
2012-04-13, 03:26:04,VALID,1004.15,VALID,0,VALID,87.8008,VALID,0,VALID,25.337,VALID,2,VALID,0.734375,
2012-04-13, 03:27:04,VALID,1004.16,VALID,0,VALID,87.7016,VALID,0,VALID,25.337,VALID,332,VALID,0.363672,
2012-04-13, 03:28:04,VALID,1004.17,VALID,0,VALID,87.6406,VALID,0,VALID,25.3565,VALID,332,VALID,0.601563,
2012-04-13, 03:29:04,VALID,1004.14,VALID,0,VALID,87.755,VALID,0,VALID,25.3974,VALID,334,VALID,0.404297,
2012-04-13, 03:30:04,VALID,1004.15,VALID,0,VALID,87.7703,VALID,0,VALID,25.376,VALID,5,VALID,0.431641,
2012-04-13, 03:31:04,VALID,1004.16,VALID,0,VALID,87.7398,VALID,0,VALID,25.3974,VALID,4,VALID,0.637891,
2012-04-13, 03:32:04,VALID,1004.15,VALID,0,VALID,87.8008,VALID,0,VALID,25.3955,VALID,1,VALID,0.819141,
2012-04-13, 03:33:04,VALID,1004.15,VALID,0,VALID,87.9,VALID,0,VALID,25.4149,VALID,346,VALID,1.04727,
2012-04-13, 03:34:04,VALID,1004.15,VALID,0,VALID,87.7855,VALID,0,VALID,25.4558,VALID,350,VALID,0.487891,
2012-04-13, 03:35:04,VALID,1004.13,VALID,0,VALID,87.7703,VALID,0,VALID,25.4753,VALID,350,VALID,0.320703,
2012-04-13, 03:36:04,VALID,1004.11,VALID,0,VALID,87.7321,VALID,0,VALID,25.4948,VALID,350,VALID,0.239453,
2012-04-13, 03:37:04,VALID,1004.11,VALID,0,VALID,87.8237,VALID,0,VALID,25.4539,VALID,350,VALID,0.336719,
2012-04-13, 03:38:04,VALID,1004.13,VALID,0,VALID,87.8847,VALID,0,VALID,25.5142,VALID,349,VALID,0.225781,
2012-04-13, 03:39:04,VALID,1004.13,VALID,0,VALID,88.0144,VALID,0,VALID,25.4734,VALID,349,VALID,0.286328,
2012-04-13, 03:40:04,VALID,1004.13,VALID,0,VALID,88.1441,VALID,0,VALID,25.4539,VALID,349,VALID,0.509766,
2012-04-13, 03:41:04,VALID,1004.17,VALID,0,VALID,88.3653,VALID,0,VALID,25.4753,VALID,349,VALID,0.349219,
2012-04-13, 03:42:04,VALID,1004.19,VALID,0,VALID,88.495,VALID,0,VALID,25.4363,VALID,349,VALID,0.338281,
2012-04-13, 03:43:04,VALID,1004.23,VALID,0,VALID,88.6552,VALID,0,VALID,25.3974,VALID,349,VALID,0.187109,
2012-04-13, 03:44:04,VALID,1004.23,VALID,0,VALID,88.7849,VALID,0,VALID,25.337,VALID,349,VALID,0.00273437,
2012-04-13, 03:45:04,VALID,1004.26,VALID,0,VALID,89.0061,VALID,0,VALID,25.339,VALID,349,VALID,0.244922,
2012-04-13, 03:46:04,VALID,1004.28,VALID,0,VALID,89.1282,VALID,0,VALID,25.3,VALID,349,VALID,0.199219,
2012-04-13, 03:47:04,VALID,1004.26,VALID,0,VALID,89.1435,VALID,0,VALID,25.3,VALID,349,VALID,0,
2012-04-13, 03:48:04,VALID,1004.31,VALID,0,VALID,89.1664,VALID,0,VALID,25.2786,VALID,349,VALID,0,
2012-04-13, 03:49:04,VALID,1004.31,VALID,0,VALID,89.2198,VALID,0,VALID,25.2786,VALID,349,VALID,0,